Location: Bratislava
(48.1500°N, 17.1170°E)
Time: 01:48:02
(UTC+02:00)

ISS - Pass Details

Date: 02 April 2019
Orbit: 408 x 410 km, 51.6° (Epoch: 26 April)

Event Time Altitude Azimuth Distance (km) Brightness Sun altitude
Rises 20:55:31 0° 292° (WNW) 2,340 1.9 -15.5°
Reaches altitude 10° 20:57:36 10° 293° (WNW) 1,476 0.4 -15.8°
Maximum altitude 21:00:55 84° 22° (NNE) 416 -3.9 -16.3°
Enters shadow 21:01:49 45° 106° (ESE) 564 -3.6 -16.5°
